EUTELSAT HOTBIRD 13G

Last updated on Wed Dec 17 2025 00:02:54 GMT+0000 (Coordinated Universal Time)

1 54225U 22146A 25349.77441284 .00000110 00000+0 00000+0 0 9993 2 54225 0.0499 235.6600 0001793 298.8114 201.9832 1.00272541 5627
UTC large
Height (km)
Speed (km/s)
/
Latitude / Longitude
Inclination (degrees)
Orbital Period (minutes)
Azimuth
Elevation
Range (km)
Doppler Factor

Next 0 passes for location: London (51.5072 / 0.1276)

Sorry there are no passes over London.